Vertical_Velocity
1 0 -4 -2 -2 -1 -1 1 1 2 2 2 1 1 1 -1 -1 0 2 2 1 -0 -1 -1 -0 0 -0 0 0 0 -0 -0 -1 -1 -1 0 1 1 2 1 1 1 1
1 0 1 -1 -4 -3 -3 -3 -1 0 1 2 1 -0 -1 -1 -3 -3 -2 -1 1 1 -0 -1 -1 -2 -1 -1 -1 -1 -1 -1 -1 -0 -0 -0 1 1 1 1 2 1 1
2 1 -0 0 -0 -4 -4 -2 -2 -2 -2 -2 2 2 0 1 2 0 -2 -1 0 -1 -1 -0 -0 -1 -1 -1 -1 0 -1 -0 -1 -0 -0 1 2 2 1 2 1 1 2
-1 -1 2 1 -1 -1 -0 -4 -5 -3 -1 -2 -2 -1 1 1 2 2 1 0 -0 -0 -0 1 -0 -1 -0 -1 -2 -2 -2 -1 -0 0 1 0 1 1 1 0 0 0 -0
-2 -3 0 4 -0 0 -0 1 0 -2 -2 -2 -2 -2 -1 1 1 1 5 4 2 1 2 -0 -1 -2 -2 -1 -1 -1 -2 -2 -3 -3 -3 -2 -2 -2 -1 -1 0 1 1
3 -1 -1 -2 -5 -2 3 2 2 -1 0 -2 -2 2 -1 -1 1 -1 2 2 3 3 1 1 -3 -2 -5 -5 -5 -4 -4 -3 -3 -2 -3 -3 -3 -2 -2 -2 -1 -1 -1
-4 3 2 1 -0 0 3 2 4 3 1 -1 -5 2 -3 1 -0 1 -0 2 4 1 -0 2 3 3 0 -2 -1 -1 -3 -2 -2 -3 -4 -3 -3 -1 -1 -0 0 -1 -1
3 -1 4 2 0 -1 0 3 -1 2 6 -0 -1 -1 2 1 7 -1 1 2 4 -1 2 -1 3 3 -0 -1 -0 -2 -1 -1 -2 -1 0 -1 -1 -3 -4 -2 0 0 1
2 2 0 -0 2 -0 2 0 -1 -4 2 0 1 -10 -4 10 -4 2 -2 1 0 -2 -1 1 -1 1 1 -1 -1 -1 -2 -3 -1 -0 -0 -1 -2 0 0 -0 -1 -2 -0
1 3 1 5 2 -1 3 3 3 -4 -8 7 -2 3 -10 -3 -0 3 -3 2 1 4 3 -0 0 2 2 2 2 2 -0 -1 -1 0 0 -2 -1 -1 0 0 0 -0 -1
-1 1 3 0 2 3 -1 1 5 -11 40 13 1 -9 4 -2 -2 -8 9 6 -6 6 3 2 2 4 1 -0 0 4 3 -0 0 0 1 1 -0 0 0 -0 -2 -0 -1
-4 -0 0 6 -1 -0 2 -1 1 -5 17 -6 43 34 7 -5 2 -5 -14 11 2 13 -4 -2 1 1 1 0 1 -2 0 1 -2 0 -0 0 -1 -2 -3 -2 0 -0 -1
-2 -4 2 4 2 -1 3 -4 0 -2 -3 4 -8 -3 4 13 -3 58 -5 -1 -4 8 6 4 1 -4 1 1 3 2 -1 -4 -3 -2 -1 -1 -1 -1 -2 -1 1 1 -1
1 1 0 1 4 5 3 1 7 -4 -12 17 -2 -0 -7 1 0 -3 -6 -8 1 13 -10 -4 5 7 7 -1 4 5 -1 -3 -3 -4 -3 -1 0 -1 -4 -4 -3 1 2
-0 5 4 5 -0 3 2 -0 1 4 6 -6 -3 14 7 23 10 24 6 18 3 -15 -4 15 -14 15 15 14 14 4 -6 0 -4 -7 -4 -1 -0 -2 -2 -4 -2 -2 -0
-1 0 4 5 5 -0 -0 2 0 2 2 -1 -4 -2 -3 -2 -2 8 10 10 4 13 -10 17 20 -1 12 13 4 -0 3 -2 2 1 -5 -4 2 2 2 4 2 1 3
-2 1 -1 -2 -1 2 2 3 1 4 -0 -1 -1 -2 -5 -3 1 -2 -8 -5 -14 -10 -28 11 10 11 6 -3 26 -8 1 -0 3 7 -1 -16 -5 3 2 4 5 -5 5
3 2 -0 -1 4 2 -3 1 2 -0 1 -1 6 6 -0 1 2 6 -2 -6 -2 -11 -25 -14 19 -1 1 6 -2 1 -1 -4 2 4 -5 -3 4 2 2 -2 -6 -1 7
0 2 3 3 4 4 3 2 -1 -3 -1 -1 -6 -10 -5 -11 -6 -4 -4 -3 -3 -6 -12 -23 4 3 6 -0 2 4 -3 -4 -8 -2 -3 6 -2 3 -4 -4 -1 3 1
0 -0 2 3 3 2 2 2 2 0 -2 1 1 -0 -1 1 0 -0 -5 -6 -6 -11 -6 -12 -15 -3 -13 2 -3 7 -2 -9 -0 5 -2 -0 -1 4 -5 -7 2 12 -4
-0 -1 -1 -1 -1 -1 -2 -2 -3 -2 -0 0 -3 -2 -1 -3 -3 2 -0 -4 -7 -5 -1 -10 -10 -6 -1 -1 -5 0 0 10 -5 -1 -7 -4 2 0 -3 -2 1 -8 4
-2 -2 -1 -2 -2 -3 -3 -3 -2 -2 -2 -2 -1 -3 -6 -2 -5 -3 -2 -2 1 -1 -4 -5 -8 -8 -1 -6 6 -4 -6 -4 5 6 -4 -1 7 -2 -1 1 -2 -6 2
-3 -3 -3 -2 -2 -1 0 2 -1 -3 -4 -5 -5 -5 -2 -2 -1 0 -1 -1 -2 -4 -1 2 0 -2 -2 -3 -7 0 -5 -4 -2 5 -9 7 3 1 -1 2 5 0 -6
-2 -1 -2 -4 -4 -3 -4 -3 -3 -3 -5 -6 -6 -7 -4 -4 -6 -3 1 2 2 -1 -4 -4 3 3 0 8 -2 -2 6 -6 1 3 -5 3 -4 6 3 1 0 0 -0
-0 -2 -2 -4 -3 -5 -7 -8 -6 -7 -6 -3 -2 -4 -6 -6 -5 -6 -1 2 3 4 -1 -4 0 -0 2 2 1 2 8 -2 7 3 3 -1 8 6 4 6 -3 5 3
-1 -1 -2 -3 -5 -0 -4 -0 -3 -1 -4 -4 -3 1 -2 -5 -5 -4 -2 2 3 2 3 2 -2 -0 -1 0 -2 -3 5 -1 1 11 6 3 5 5 -3 53 5 20 22
Height
5873 5872 5871 5870 5870 5871 5872 5872 5873 5874 5874 5875 5875 5875 5874 5873 5873 5873 5874 5874 5875 5874 5874 5873 5872 5871 5870 5869 5868 5866 5865 5863 5862 5861 5860 5859 5858 5857 5857 5856 5855 5853 5851
5869 5869 5869 5868 5867 5865 5865 5866 5867 5868 5869 5870 5869 5869 5868 5867 5867 5867 5867 5868 5868 5868 5867 5867 5866 5865 5864 5863 5862 5861 5860 5858 5857 5856 5855 5854 5853 5853 5853 5852 5850 5849 5847
5863 5864 5864 5864 5862 5861 5861 5860 5860 5861 5862 5862 5863 5862 5862 5862 5862 5861 5860 5861 5861 5861 5861 5860 5860 5858 5858 5856 5856 5855 5854 5853 5851 5850 5849 5848 5849 5848 5847 5846 5845 5843 5841
5854 5855 5857 5858 5857 5857 5856 5855 5854 5853 5853 5853 5853 5853 5854 5854 5855 5855 5855 5855 5854 5854 5854 5853 5852 5851 5850 5849 5848 5847 5846 5845 5844 5844 5843 5843 5843 5843 5842 5840 5838 5836 5835
5846 5846 5848 5849 5849 5849 5850 5849 5848 5846 5844 5843 5843 5843 5845 5846 5847 5848 5849 5848 5847 5847 5846 5845 5844 5844 5843 5842 5840 5840 5838 5838 5837 5837 5838 5838 5837 5836 5835 5834 5832 5830 5828
5837 5838 5839 5840 5840 5841 5842 5842 5841 5839 5839 5838 5835 5835 5836 5838 5838 5840 5841 5840 5840 5839 5837 5836 5835 5835 5834 5833 5832 5831 5830 5830 5831 5831 5830 5830 5829 5829 5828 5826 5825 5823 5821
5825 5826 5827 5828 5830 5831 5832 5833 5833 5833 5832 5830 5827 5828 5827 5827 5829 5832 5832 5831 5831 5830 5829 5829 5828 5827 5827 5826 5826 5825 5824 5824 5824 5824 5824 5823 5822 5821 5820 5818 5817 5816 5814
5813 5814 5814 5816 5818 5819 5820 5820 5821 5822 5823 5821 5820 5818 5818 5820 5821 5821 5820 5821 5822 5821 5821 5819 5819 5819 5818 5818 5818 5817 5816 5816 5816 5815 5814 5813 5813 5812 5811 5810 5809 5808 5806
5799 5800 5801 5804 5805 5807 5807 5808 5808 5808 5810 5810 5809 5805 5807 5810 5810 5809 5808 5809 5810 5811 5811 5810 5809 5809 5810 5809 5809 5808 5808 5807 5807 5805 5804 5804 5803 5802 5801 5800 5800 5799 5797
5784 5785 5786 5789 5791 5792 5795 5795 5795 5796 5796 5797 5796 5797 5793 5794 5795 5798 5798 5799 5798 5797 5799 5800 5800 5801 5800 5800 5801 5800 5799 5797 5796 5796 5795 5794 5793 5792 5791 5790 5790 5788 5786
5764 5767 5771 5772 5775 5777 5778 5780 5781 5781 5771 5767 5780 5780 5780 5779 5778 5781 5786 5789 5789 5790 5788 5787 5789 5789 5789 5789 5789 5790 5790 5789 5788 5786 5785 5784 5783 5782 5780 5779 5778 5777 5775
5745 5748 5751 5755 5757 5759 5761 5763 5765 5767 5760 5763 5753 5759 5761 5761 5764 5760 5760 5768 5772 5775 5774 5775 5774 5775 5777 5778 5778 5778 5778 5779 5777 5775 5774 5773 5771 5769 5768 5767 5766 5765 5763
5723 5728 5731 5734 5737 5741 5742 5743 5746 5748 5751 5751 5746 5748 5747 5745 5741 5735 5735 5737 5745 5753 5758 5761 5761 5760 5761 5762 5764 5764 5764 5764 5763 5762 5761 5760 5758 5757 5756 5754 5753 5751 5748
5700 5706 5711 5714 5716 5719 5723 5726 5727 5728 5731 5731 5727 5730 5732 5731 5732 5721 5719 5722 5723 5722 5729 5738 5745 5746 5747 5747 5746 5747 5748 5748 5748 5748 5748 5746 5743 5742 5741 5739 5738 5736 5733
5679 5684 5689 5694 5697 5699 5702 5706 5708 5710 5710 5713 5712 5713 5711 5709 5706 5708 5709 5707 5705 5705 5707 5718 5718 5725 5726 5726 5728 5728 5727 5729 5731 5731 5730 5729 5729 5727 5725 5723 5720 5718 5716
5665 5667 5670 5672 5677 5681 5682 5686 5688 5691 5691 5691 5692 5693 5693 5691 5689 5685 5691 5690 5691 5690 5693 5700 5702 5700 5702 5704 5704 5706 5708 5708 5708 5708 5711 5711 5711 5711 5709 5705 5702 5699 5697
5662 5660 5660 5660 5660 5661 5665 5667 5669 5671 5672 5671 5671 5671 5672 5673 5673 5674 5675 5674 5671 5670 5676 5676 5677 5686 5685 5680 5684 5683 5685 5686 5693 5694 5691 5690 5692 5692 5691 5687 5682 5680 5677
5664 5661 5658 5656 5652 5651 5651 5652 5652 5652 5651 5650 5652 5650 5649 5650 5650 5651 5650 5649 5650 5652 5654 5658 5660 5665 5664 5662 5663 5666 5665 5668 5671 5673 5671 5674 5674 5673 5669 5664 5661 5659 5654
5663 5660 5656 5653 5649 5646 5643 5640 5639 5637 5635 5633 5630 5627 5624 5624 5624 5623 5622 5624 5623 5627 5632 5636 5636 5639 5642 5644 5643 5647 5649 5649 5651 5655 5655 5657 5655 5653 5650 5649 5642 5634 5634
5659 5655 5651 5647 5644 5641 5638 5634 5631 5627 5624 5619 5614 5610 5606 5602 5600 5598 5596 5596 5596 5597 5601 5607 5612 5615 5616 5617 5618 5623 5626 5629 5633 5636 5636 5637 5636 5633 5632 5632 5629 5624 5621
5655 5650 5645 5640 5636 5632 5628 5624 5620 5615 5610 5604 5598 5592 5586 5583 5581 5576 5576 5573 5571 5571 5572 5576 5581 5583 5587 5593 5596 5598 5599 5604 5607 5609 5610 5613 5616 5614 5613 5615 5612 5611 5609
5649 5644 5638 5633 5628 5623 5617 5611 5605 5599 5593 5588 5581 5573 5567 5562 5558 5554 5551 5549 5548 5548 5548 5548 5553 5557 5561 5563 5564 5568 5572 5577 5582 5583 5586 5589 5592 5593 5592 5595 5596 5594 5593
5642 5637 5631 5625 5619 5613 5606 5599 5591 5583 5576 5568 5560 5553 5546 5539 5534 5531 5527 5523 5519 5519 5523 5524 5527 5528 5533 5533 5536 5537 5540 5545 5549 5553 5557 5563 5566 5570 5572 5575 5576 5574 5574
5634 5628 5621 5615 5608 5601 5592 5584 5575 5566 5556 5545 5535 5526 5519 5511 5505 5502 5501 5499 5496 5493 5491 5496 5500 5504 5504 5505 5505 5510 5513 5516 5523 5524 5529 5537 5540 5545 5548 5551 5553 5555 5557
5626 5619 5611 5603 5595 5586 5577 5568 5559 5548 5536 5524 5511 5501 5493 5486 5480 5475 5472 5470 5470 5470 5467 5468 5471 5474 5479 5481 5482 5486 5489 5492 5500 5502 5507 5512 5516 5522 5523 5528 5530 5534 5538
5619 5611 5603 5594 5586 5576 5565 5552 5540 5527 5515 5505 5497 5489 5480 5472 5464 5457 5453 5451 5451 5451 5452 5452 5451 5452 5454 5457 5460 5465 5469 5473 5477 5484 5487 5491 5496 5501 5507 5511 5514 5518 5517